Carson City, NV

9:55 AM PDT on August 31, 2016 (GMT -0700)
Carson

Weather History for KCXP - July, 2013

Change the Weather History Date:

Wednesday, July 3, 2013

  Actual Average Record
Temperature  
Mean Temperature 78 °F -  
Max Temperature 98 °F 85 °F 98 °F (2013)
Min Temperature 59 °F 47 °F 53 °F (2011)
Cooling Degree Days 14    
Growing Degree Days 28 (Base 50)    
Moisture  
Dew Point 46 °F    
Average Humidity 36    
Maximum Humidity 68    
Minimum Humidity 11    
Precipitation  
Precipitation 0.00 in - - ()
Sea Level Pressure  
Sea Level Pressure 30.16 in    
Wind  
Wind Speed 5 mph (WNW)    
Max Wind Speed 16 mph    
Max Gust Speed 23 mph    
Visibility 10 miles    
Events Rain , Thunderstorm    
Averages and records for this station are not official NWS values.
T = Trace of Precipitation, MM = Missing Value Source: NWS Daily Summary

Daily Weather History Graph

Daily Weather History Graph

Search for Another Location

Airport or City:

Trip Planner

Search our weather history database for the weather conditions in past years. The results will help you decide how hot, cold, wet, or windy it might be!

Date:

Astronomy

Jul. 03, 2013 Rise Set
Actual Time 5:37 AM PDT 8:28 PM PDT
Civil Twilight 5:05 AM PDT 9:00 PM PDT
Nautical Twilight 4:25 AM PDT 9:40 PM PDT
Astronomical Twilight 3:38 AM PDT 10:27 PM PDT
Moon 2:17 AM PDT (7/3) 4:44 PM PDT (7/3)
Length of Visible Light 15h 55m
Length of Day
14h 51m
Waning Crescent, 17% of the Moon is Illuminated
Jul 3
Waning Crescent
Jul 8
New
Jul 15
First Quarter
Jul 22
Full
Jul 29
Last Quarter

Hourly Weather History & Observations

Time (PDT) Temp. Heat Index Dew Point Humidity Pressure Visibility Wind Dir Wind Speed Gust Speed Precip Events Conditions
12:15 AM 73.4 °F - 48.2 °F 41% 30.25 in 10.0 mi WNW 11.5 mph 16.1 mph N/A   Clear
12:35 AM 73.4 °F - 48.2 °F 41% 30.25 in 10.0 mi NW 10.4 mph - N/A   Clear
12:55 AM 71.6 °F - 48.2 °F 43% 30.25 in 10.0 mi West 4.6 mph - N/A   Clear
1:15 AM 68.0 °F - 50.0 °F 52% 30.25 in 10.0 mi SE 4.6 mph - N/A   Clear
1:35 AM 68.0 °F - 50.0 °F 52% 30.25 in 10.0 mi South 6.9 mph - N/A   Clear
1:55 AM 68.0 °F - 50.0 °F 52% 30.25 in 10.0 mi Calm Calm - N/A   Clear
2:15 AM 66.2 °F - 50.0 °F 56% 30.25 in 10.0 mi Calm Calm - N/A   Clear
2:35 AM 66.2 °F - 48.2 °F 52% 30.25 in 10.0 mi Calm Calm - N/A   Clear
2:55 AM 66.2 °F - 50.0 °F 56% 30.24 in 10.0 mi NW 3.5 mph - N/A   Clear
3:15 AM 66.2 °F - 48.2 °F 52% 30.25 in 10.0 mi Calm Calm - N/A   Clear
3:35 AM 64.4 °F - 50.0 °F 59% 30.24 in 10.0 mi Calm Calm - N/A   Clear
3:55 AM 64.4 °F - 50.0 °F 59% 30.25 in 10.0 mi Calm Calm - N/A   Clear
4:15 AM 62.6 °F - 48.2 °F 59% 30.25 in 10.0 mi Calm Calm - N/A   Clear
4:35 AM 62.6 °F - 48.2 °F 59% 30.25 in 10.0 mi Calm Calm - N/A   Clear
4:55 AM 62.6 °F - 48.2 °F 59% 30.25 in 10.0 mi Calm Calm - N/A   Clear
5:15 AM 59.0 °F - 48.2 °F 67% 30.25 in 10.0 mi Calm Calm - N/A   Clear
5:35 AM 59.0 °F - 48.2 °F 67% 30.25 in 10.0 mi Calm Calm - N/A   Clear
5:55 AM 60.8 °F - 48.2 °F 63% 30.26 in 10.0 mi Calm Calm - N/A   Clear
6:15 AM 60.8 °F - 50.0 °F 68% 30.25 in 10.0 mi Calm Calm - N/A   Clear
6:35 AM 62.6 °F - 50.0 °F 63% 30.25 in 10.0 mi Calm Calm - N/A   Clear
6:55 AM 62.6 °F - 50.0 °F 63% 30.26 in 10.0 mi Calm Calm - N/A   Clear
7:15 AM 64.4 °F - 50.0 °F 59% 30.26 in 10.0 mi Calm Calm - N/A   Clear
7:35 AM 66.2 °F - 50.0 °F 56% 30.26 in 10.0 mi Calm Calm - N/A   Clear
7:55 AM 68.0 °F - 50.0 °F 52% 30.26 in 10.0 mi WNW 3.5 mph - N/A   Clear
8:15 AM 69.8 °F - 50.0 °F 49% 30.26 in 10.0 mi Calm Calm - N/A   Clear
8:35 AM 71.6 °F - 50.0 °F 46% 30.25 in 10.0 mi West 3.5 mph - N/A   Clear
8:55 AM 71.6 °F - 50.0 °F 46% 30.25 in 10.0 mi West 3.5 mph - N/A   Clear
9:15 AM 75.2 °F - 50.0 °F 41% 30.23 in 10.0 mi West 3.5 mph - N/A   Clear
9:35 AM 77.0 °F - 50.0 °F 39% 30.23 in 10.0 mi West 3.5 mph - N/A   Clear
9:55 AM 77.0 °F - 48.2 °F 36% 30.21 in 10.0 mi West 3.5 mph - N/A   Clear
10:15 AM 80.6 °F - 48.2 °F 32% 30.20 in 10.0 mi SW 4.6 mph - N/A   Clear
10:35 AM 82.4 °F - 48.2 °F 30% 30.20 in 10.0 mi SW 5.8 mph - N/A   Clear
10:55 AM 84.2 °F - 46.4 °F 27% 30.19 in 10.0 mi SSW 5.8 mph - N/A   Clear
11:15 AM 84.2 °F - 48.2 °F 29% 30.18 in 10.0 mi WSW 5.8 mph - N/A   Clear
11:35 AM 86.0 °F - 48.2 °F 27% 30.17 in 10.0 mi SSW 3.5 mph - N/A   Clear
11:55 AM 86.0 °F - 46.4 °F 25% 30.17 in 10.0 mi Calm Calm - N/A   Clear
12:15 PM 89.6 °F - 46.4 °F 22% 30.16 in 10.0 mi North 4.6 mph - N/A   Clear
12:35 PM 89.6 °F - 44.6 °F 21% 30.15 in 10.0 mi Calm Calm - N/A   Clear
12:55 PM 91.4 °F - 44.6 °F 20% 30.14 in 10.0 mi Calm Calm - N/A   Clear
1:15 PM 93.2 °F - 44.6 °F 19% 30.13 in 10.0 mi SSE 4.6 mph - N/A   Clear
1:35 PM 93.2 °F - 46.4 °F 20% 30.13 in 10.0 mi ESE 6.9 mph - N/A   Clear
1:55 PM 93.2 °F - 44.6 °F 19% 30.12 in 10.0 mi WSW 5.8 mph - N/A   Clear
2:15 PM 95.0 °F - 48.2 °F 20% 30.10 in 10.0 mi NNW 11.5 mph 16.1 mph N/A   Clear
2:35 PM 95.0 °F - 46.4 °F 19% 30.09 in 10.0 mi NNW 12.7 mph 19.6 mph N/A   Clear
2:55 PM 95.0 °F - 41.0 °F 15% 30.08 in 10.0 mi NNW 12.7 mph 20.7 mph N/A   Clear
3:15 PM 96.8 °F - 39.2 °F 14% 30.07 in 10.0 mi NW 12.7 mph 18.4 mph N/A   Clear
3:35 PM 96.8 °F - 35.6 °F 12% 30.06 in 10.0 mi North 9.2 mph 19.6 mph N/A   Clear
3:55 PM 95.0 °F - 37.4 °F 13% 30.06 in 10.0 mi North 9.2 mph 20.7 mph N/A   Clear
4:15 PM 98.6 °F - 35.6 °F 11% 30.05 in 10.0 mi North 11.5 mph - N/A   Clear
4:35 PM 96.8 °F - 35.6 °F 12% 30.05 in 10.0 mi NNE 4.6 mph 23.0 mph N/A   Clear
4:55 PM 95.0 °F - 37.4 °F 13% 30.05 in 10.0 mi West 3.5 mph - N/A   Clear
5:15 PM 95.0 °F - 39.2 °F 14% 30.05 in 10.0 mi West 3.5 mph - N/A   Clear
5:35 PM 93.2 °F - 39.2 °F 15% 30.04 in 10.0 mi WNW 5.8 mph - N/A   Clear
5:55 PM 93.2 °F - 39.2 °F 15% 30.04 in 10.0 mi NW 6.9 mph - N/A   Clear
6:15 PM 91.4 °F - 41.0 °F 17% 30.05 in 10.0 mi West 5.8 mph - N/A   Clear
6:35 PM 91.4 °F - 44.6 °F 20% 30.05 in 10.0 mi West 5.8 mph - N/A   Clear
6:55 PM 89.6 °F - 48.2 °F 24% 30.06 in 9.0 mi WNW 16.1 mph 19.6 mph N/A Rain Light Rain
7:15 PM 86.0 °F - 48.2 °F 27% 30.06 in 10.0 mi Calm Calm - N/A Rain , Thunderstorm Light Thunderstorms and Rain
7:35 PM 84.2 °F - 44.6 °F 25% 30.06 in 10.0 mi SSW 9.2 mph - N/A Thunderstorm Thunderstorm
7:55 PM 82.4 °F 81.4 °F 53.6 °F 37% 30.05 in 10.0 mi ENE 3.5 mph - N/A   Partly Cloudy
8:15 PM 84.2 °F - 46.4 °F 27% 30.05 in 10.0 mi WSW 8.1 mph - N/A   Clear
8:35 PM 82.4 °F - 48.2 °F 30% 30.06 in 10.0 mi East 6.9 mph - N/A   Clear
8:55 PM 82.4 °F - 44.6 °F 26% 30.07 in 10.0 mi South 4.6 mph - N/A   Clear
9:15 PM 80.6 °F - 42.8 °F 26% 30.07 in 10.0 mi Calm Calm - N/A   Clear
9:35 PM 80.6 °F - 42.8 °F 26% 30.09 in 10.0 mi North 3.5 mph - N/A   Scattered Clouds
9:55 PM 77.0 °F - 44.6 °F 32% 30.10 in 10.0 mi East 3.5 mph - N/A   Scattered Clouds
10:15 PM 77.0 °F - 46.4 °F 34% 30.10 in 10.0 mi WNW 3.5 mph - N/A   Clear
10:35 PM 77.0 °F - 44.6 °F 32% 30.11 in 10.0 mi SSE 5.8 mph - N/A   Clear
10:55 PM 77.0 °F - 46.4 °F 34% 30.11 in 10.0 mi NW 3.5 mph - N/A   Clear
11:15 PM 77.0 °F - 46.4 °F 34% 30.12 in 10.0 mi West 5.8 mph - N/A   Clear
11:35 PM 77.0 °F - 51.8 °F 41% 30.12 in 10.0 mi NW 12.7 mph - N/A   Clear
11:55 PM 77.0 °F - 50.0 °F 39% 30.12 in 10.0 mi NNW 8.1 mph - N/A   Clear